This demonstration page uses our WeatherBlox Daily Observations layout. Learn more.

Left ArrowRight Arrow

Hourly Observations for January 4, 2020

Temp ( °F °C ) Dew Point ( °F °C ) Humidity (%) Winds ( mph kmh ) Pressure ( in mb ) Visibility ( mi km ) Precip ( " mm )
12:53 am 00:53 Clear 22 -5.6 15 -9.4 75 75 WNW 8 13 30.23 1024 10 16 0.00 0.00
1:53 am 01:53 Clear 20 -6.7 14 -10 78 78 W 6 9 30.25 1024 10 16 0.00 0.00
2:53 am 02:53 Clear 21 -6.1 14 -10 74 74 W 7 11 30.27 1025 10 16 0.00 0.00
3:53 am 03:53 Clear 19 -7.2 13 -10.6 77 77 W 5 7 30.26 1025 10 16 0.00 0.00
4:53 am 04:53 Clear 19 -7.2 12 -11.1 74 74 Calm 30.25 1025 10 16 0.00 0.00
5:53 am 05:53 Clear 20 -6.7 13 -10.6 74 74 SW 5 7 30.24 1024 10 16 0.00 0.00
6:53 am 06:53 Clear 19 -7.2 13 -10.6 77 77 SW 3 6 30.26 1025 10 16 0.00 0.00
7:53 am 07:53 Clear 21 -6.1 13 -10.6 71 71 SSW 5 7 30.23 1024 10 16 0.00 0.00
8:53 am 08:53 Sunny 24 -4.4 15 -9.4 68 68 WSW 8 13 30.24 1024 10 16 0.00 0.00
9:53 am 09:53 Sunny 30 -1.1 19 -7.2 64 64 SW 8 13 30.23 1024 10 16 0.00 0.00
10:53 am 10:53 Sunny 35 1.7 22 -5.6 59 59 SW 13 20 30.21 1023 10 16 0.00 0.00
11:53 am 11:53 Sunny 38 3.3 26 -3.3 62 62 SW 10 17 30.17 1022 10 16 0.00 0.00
12:53 pm 12:53 Sunny 41 5 28 -2.2 60 60 SSW 12 19 30.11 1020 10 16 0.00 0.00
1:53 pm 13:53 Sunny 42 5.6 29 -1.7 60 60 SSW 15 24 30.09 1019 10 16 0.00 0.00
2:53 pm 14:53 Sunny 43 6.1 31 -0.6 63 63 SSW 13 20 30.07 1018 10 16 0.00 0.00
3:53 pm 15:53 Sunny 44 6.7 33 0.6 65 65 S 10 17 30.06 1018 10 16 0.00 0.00
4:53 pm 16:53 Sunny 43 6.1 33 0.6 68 68 SSW 10 17 30.05 1018 10 16 0.00 0.00
5:53 pm 17:53 Clear 42 5.6 32 0 68 68 S 9 15 30.04 1017 10 16 0.00 0.00
6:53 pm 18:53 Clear 40 4.4 31 -0.6 70 70 S 12 19 30.03 1017 10 16 0.00 0.00
7:53 pm 19:53 Clear 40 4.4 32 0 73 73 SSW 10 17 30.01 1016 10 16 0.00 0.00
8:53 pm 20:53 Clear 40 4.4 32 0 73 73 SSW 9 15 29.99 1016 10 16 0.00 0.00
9:53 pm 21:53 Clear 41 5 32 0 70 70 SSW 10 17 29.98 1015 10 16 0.00 0.00
10:53 pm 22:53 Clear 41 5 32 0 70 70 SSW 12 19 29.98 1015 10 16 0.00 0.00
11:53 pm 23:53 Clear 39 3.9 31 -0.6 73 73 SW 13 20 29.97 1015 10 16 0.00 0.00

Powered by AerisWeather